Weather History for Ainsworth, NE

Change the Weather History Date:

Wednesday, November 21, 2012

  Actual Average Record
Temperature  
Mean Temperature 58 °F -  
Max Temperature 76 °F 42 °F 76 °F (2012)
Min Temperature 40 °F 23 °F 6 °F (2013)
Degree Days  
Heating Degree Days 7    
Growing Degree Days 8 (Base 50)    
Moisture  
Dew Point 19 °F    
Average Humidity 28    
Maximum Humidity 47    
Minimum Humidity 7    
Precipitation  
Precipitation 0.00 in - - ()
Sea Level Pressure  
Sea Level Pressure 29.84 in    
Wind  
Wind Speed 11 mph (SW)    
Max Wind Speed 17 mph    
Max Gust Speed 23 mph    
Visibility 10 miles    
Events      
Averages and records for this station are not official NWS values.
T = Trace of Precipitation, MM = Missing Value Source: NWS Daily Summary

Daily Weather History Graph

Daily Weather History Graph

Search for Another Location

Airport:

Trip Planner

Search our weather history database for the weather conditions in past years. The results will help you decide how hot, cold, wet, or windy it might be!

Date:

Astronomy

Nov. 21, 2012 Rise Set
Actual Time 7:39 AM CST 5:12 PM CST
Civil Twilight 7:08 AM CST 5:43 PM CST
Nautical Twilight 6:33 AM CST 6:17 PM CST
Astronomical Twilight 6:00 AM CST 6:51 PM CST
Moon 1:36 PM CST (11/21) 12:52 AM CST (11/21)
Length of Visible Light 10h 34m
Length of Day
9h 32m
First Quarter, 62% of the Moon is Illuminated
Nov 21
First Quarter
Nov 28
Full
Dec 6
Last Quarter
Dec 13
New
Dec 19
First Quarter

Hourly Weather History & Observations

Time (CST) Temp. Windchill Dew Point Humidity Pressure Visibility Wind Dir Wind Speed Gust Speed Precip Events Conditions
12:15 AM 47.1 °F - 23.0 °F 39% 29.99 in 10.0 mi SSW 13.8 mph - N/A   Clear
12:35 AM 47.5 °F - 23.0 °F 38% 29.98 in 10.0 mi SSW 15.0 mph - N/A   Clear
12:55 AM 47.3 °F - 22.8 °F 38% 29.98 in 10.0 mi SSW 13.8 mph - N/A   Clear
1:15 AM 47.5 °F - 22.5 °F 37% 29.97 in 10.0 mi SSW 12.7 mph - N/A   Clear
1:35 AM 46.6 °F - 22.3 °F 38% 29.97 in 10.0 mi SSW 10.4 mph - N/A   Clear
1:55 AM 46.2 °F 42.2 °F 22.1 °F 39% 29.97 in 10.0 mi SW 8.1 mph - N/A   Clear
2:15 AM 45.7 °F 42.0 °F 22.1 °F 39% 29.96 in 10.0 mi SSW 6.9 mph - N/A   Clear
2:35 AM 43.0 °F 38.2 °F 22.8 °F 45% 29.97 in 10.0 mi SSW 8.1 mph - N/A   Clear
2:55 AM 43.7 °F 38.6 °F 22.6 °F 43% 29.96 in 10.0 mi SSW 9.2 mph - N/A   Clear
3:15 AM 44.4 °F 38.6 °F 22.1 °F 41% 29.96 in 10.0 mi SSW 11.5 mph - N/A   Clear
3:35 AM 44.6 °F 39.7 °F 21.9 °F 41% 29.95 in 10.0 mi SSW 9.2 mph - N/A   Clear
3:55 AM 43.9 °F 37.9 °F 21.7 °F 41% 29.95 in 10.0 mi SSW 11.5 mph - N/A   Clear
4:15 AM 43.7 °F 37.7 °F 21.7 °F 42% 29.94 in 10.0 mi SSW 11.5 mph - N/A   Clear
4:35 AM 43.3 °F 37.7 °F 21.6 °F 42% 29.94 in 10.0 mi SSW 10.4 mph - N/A   Clear
4:55 AM 42.3 °F 36.8 °F 21.2 °F 43% 29.94 in 10.0 mi SW 9.2 mph - N/A   Clear
5:15 AM 42.3 °F 37.9 °F 21.2 °F 43% 29.94 in 10.0 mi SSW 6.9 mph - N/A   Clear
5:35 AM 42.8 °F 37.5 °F 21.2 °F 42% 29.94 in 10.0 mi SSW 9.2 mph - N/A   Clear
5:55 AM 42.8 °F 37.0 °F 21.0 °F 42% 29.92 in 10.0 mi SSW 10.4 mph - N/A   Clear
6:15 AM 40.3 °F 34.9 °F 21.2 °F 47% 29.92 in 10.0 mi SSW 8.1 mph - N/A   Clear
6:35 AM 43.0 °F 38.2 °F 20.8 °F 41% 29.92 in 10.0 mi SSW 8.1 mph - N/A   Clear
6:55 AM 41.2 °F 36.6 °F 21.2 °F 45% 29.92 in 10.0 mi WSW 6.9 mph - N/A   Clear
7:15 AM 40.5 °F 38.4 °F 21.2 °F 46% 29.91 in 10.0 mi WSW 3.5 mph - N/A   Clear
7:35 AM 40.3 °F 36.3 °F 21.2 °F 47% 29.91 in 10.0 mi SW 5.8 mph - N/A   Clear
7:55 AM 40.8 °F 36.2 °F 21.2 °F 46% 29.91 in 10.0 mi SW 6.9 mph - N/A   Clear
8:15 AM 41.2 °F 35.0 °F 21.2 °F 45% 29.90 in 10.0 mi South 10.4 mph - N/A   Clear
8:35 AM 46.2 °F 40.8 °F 21.4 °F 37% 29.90 in 10.0 mi South 11.5 mph - N/A   Clear
8:55 AM 46.8 °F - 21.0 °F 36% 29.90 in 10.0 mi South 11.5 mph - N/A   Clear
9:15 AM 48.6 °F - 20.7 °F 33% 29.90 in 10.0 mi South 10.4 mph - N/A   Clear
9:35 AM 48.9 °F - 20.3 °F 32% 29.88 in 10.0 mi South 10.4 mph - N/A   Clear
9:55 AM 51.4 °F - 19.8 °F 29% 29.90 in 10.0 mi SW 10.4 mph - N/A   Clear
10:15 AM 52.7 °F - 19.4 °F 27% 29.89 in 10.0 mi SSW 11.5 mph - N/A   Clear
10:35 AM 55.8 °F - 19.8 °F 25% 29.88 in 10.0 mi SW 9.2 mph - N/A   Clear
10:55 AM 58.1 °F - 19.6 °F 22% 29.88 in 10.0 mi SW 10.4 mph - N/A   Clear
11:15 AM 61.3 °F - 20.1 °F 20% 29.87 in 10.0 mi SW 10.4 mph - N/A   Clear
11:35 AM 64.6 °F - 19.4 °F 18% 29.85 in 10.0 mi SSW 11.5 mph - N/A   Clear
11:55 AM 66.0 °F - 19.0 °F 17% 29.84 in 10.0 mi SSW 9.2 mph - N/A   Clear
12:15 PM 67.6 °F - 17.2 °F 15% 29.83 in 10.0 mi SW 10.4 mph - N/A   Clear
12:35 PM 69.6 °F - 16.9 °F 13% 29.82 in 10.0 mi SW 13.8 mph - N/A   Clear
12:55 PM 71.1 °F - 16.3 °F 12% 29.81 in 10.0 mi SW 15.0 mph 20.7 mph N/A   Clear
1:15 PM 72.3 °F - 15.8 °F 12% 29.80 in 10.0 mi SW 16.1 mph 20.7 mph N/A   Clear
1:35 PM 73.2 °F - 15.8 °F 11% 29.78 in 10.0 mi SW 15.0 mph - N/A   Clear
1:55 PM 74.5 °F - 14.7 °F 10% 29.78 in 10.0 mi WSW 17.3 mph 23.0 mph N/A   Clear
2:15 PM 75.0 °F - 14.9 °F 10% 29.76 in 10.0 mi WSW 15.0 mph - N/A   Clear
2:35 PM 75.9 °F - 14.4 °F 10% 29.76 in 10.0 mi SW 12.7 mph - N/A   Clear
2:55 PM 76.1 °F - 14.0 °F 9% 29.75 in 10.0 mi WSW 13.8 mph - N/A   Clear
3:15 PM 76.3 °F - 12.7 °F 9% 29.75 in 10.0 mi WSW 12.7 mph - N/A   Clear
3:35 PM 75.4 °F - 11.7 °F 9% 29.74 in 10.0 mi WSW 6.9 mph - N/A   Clear
3:55 PM 76.5 °F - 11.3 °F 8% 29.74 in 10.0 mi SW 10.4 mph - N/A   Clear
4:15 PM 76.5 °F - 7.5 °F 7% 29.74 in 10.0 mi West 11.5 mph 19.6 mph N/A   Clear
4:35 PM 74.5 °F - 8.4 °F 8% 29.74 in 10.0 mi West 11.5 mph - N/A   Clear
4:55 PM 70.9 °F - 8.6 °F 9% 29.74 in 10.0 mi WSW 9.2 mph - N/A   Clear
5:15 PM 64.9 °F - 10.0 °F 12% 29.74 in 10.0 mi SW 9.2 mph - N/A   Clear
5:35 PM 59.0 °F - 15.3 °F 18% 29.74 in 10.0 mi South 10.4 mph - N/A   Clear
5:55 PM 61.0 °F - 18.3 °F 19% 29.75 in 10.0 mi South 13.8 mph - N/A   Clear
6:15 PM 59.0 °F - 19.6 °F 22% 29.75 in 10.0 mi South 12.7 mph - N/A   Clear
6:35 PM 58.1 °F - 21.0 °F 24% 29.75 in 10.0 mi South 13.8 mph - N/A   Clear
6:55 PM 57.0 °F - 21.6 °F 25% 29.75 in 10.0 mi SSW 15.0 mph - N/A   Clear
7:15 PM 57.4 °F - 21.2 °F 25% 29.75 in 10.0 mi SSW 16.1 mph - N/A   Clear
7:35 PM 55.8 °F - 21.2 °F 26% 29.75 in 10.0 mi SSW 13.8 mph - N/A   Clear
7:55 PM 55.2 °F - 21.2 °F 27% 29.74 in 10.0 mi SSW 16.1 mph - N/A   Clear
8:15 PM 54.5 °F - 21.0 °F 27% 29.74 in 10.0 mi SSW 13.8 mph - N/A   Clear
8:35 PM 52.7 °F - 20.8 °F 29% 29.74 in 10.0 mi SSW 13.8 mph - N/A   Clear
8:55 PM 54.1 °F - 20.3 °F 27% 29.73 in 10.0 mi SSW 15.0 mph - N/A   Clear
9:15 PM 54.0 °F - 19.9 °F 26% 29.73 in 10.0 mi SSW 15.0 mph - N/A   Clear
9:35 PM 53.1 °F - 19.4 °F 27% 29.73 in 10.0 mi SW 15.0 mph - N/A   Clear
9:55 PM 53.6 °F - 19.4 °F 26% 29.73 in 10.0 mi SW 15.0 mph 19.6 mph N/A   Clear
10:15 PM 52.7 °F - 19.4 °F 27% 29.72 in 10.0 mi SW 12.7 mph - N/A   Clear
10:35 PM 51.3 °F - 19.4 °F 29% 29.73 in 10.0 mi SSW 9.2 mph - N/A   Clear
10:55 PM 49.3 °F - 19.4 °F 31% 29.73 in 10.0 mi SSW 6.9 mph - N/A   Clear
11:15 PM 49.1 °F - 19.9 °F 32% 29.72 in 10.0 mi SW 10.4 mph - N/A   Clear
11:35 PM 49.5 °F - 20.1 °F 31% 29.72 in 10.0 mi SW 9.2 mph - N/A   Clear
11:55 PM 49.5 °F - 21.0 °F 33% 29.72 in 10.0 mi SW 9.2 mph - N/A   Clear